Regional Weather Roundup
Issued by NWS

Home | Current Version | Previous Version | Graphics & Text | Print | Product List | Glossary On
Versions: 1 2 3 4 5 6 7 8 9 10 11 12 13 14 15 16 17 18 19 20 21 22 23 24 25 26 27 28 29 30 31 32 33 34 35 36 37 38 39 40 41 42 43 44 45 46 47 48 49 50
000
ASUS43 KTOP 222359
RWRKS

WEATHER ROUNDUP FOR KANSAS
NATIONAL WEATHER SERVICE GOODLAND KS
600 PM CST THU FEB 22 2018

NOTE:  "FAIR" INDICATES FEW OR NO CLOUDS BELOW 12,000 FEET WITH NO
SIGNIFICANT WEATHER AND/OR OBSTRUCTIONS TO VISIBILITY.

KSZ001>006-013>018-027>032-041>047-230100-
NORTHWEST KANSAS

CITY           SKY/WX    TMP DP  RH WIND       PRES   REMARKS
GOODLAND       CLEAR     29  19  66 E10       29.99R WCI  20
6HR MIN TEMP:  21; 6HR MAX TEMP:  33; 6HR PCP: TRACE;

HAYS           MIX PCPN  29  27  92 S3        30.12S VSB 1
HILL CITY      CLOUDY    26  25  96 CALM      30.12R FOG
6HR MIN TEMP:  25; 6HR MAX TEMP:  27;

RUSSELL        CLOUDY    31  30  96 S6        30.12R FOG
6HR MIN TEMP:  29; 6HR MAX TEMP:  31; 6HR PCP: TRACE;

$$

KSZ061>065-074>080-084>089-230100-
SOUTHWEST KANSAS

CITY           SKY/WX    TMP DP  RH WIND       PRES   REMARKS
DODGE CITY     CLOUDY    30  27  88 S10       30.06F FOG     WCI  21
6HR MIN TEMP:  25; 6HR MAX TEMP:  30;

GARDEN CITY    CLEAR     32  24  72 SE15      30.02R WCI  22
6HR MIN TEMP:  25; 6HR MAX TEMP:  35;

GREAT BEND     MIX PCPN  30  29  96 SE6       30.12F FOG
LIBERAL        CLEAR     38  27  64 SE15      30.01S WCI  29
$$

KSZ066>073-081>083-090>101-230100-
SOUTHEAST KANSAS

CITY           SKY/WX    TMP DP  RH WIND       PRES   REMARKS
CHANUTE        LGT RAIN  36  35  96 CALM      30.17F FOG
6HR MIN TEMP:  34; 6HR MAX TEMP:  37; 6HR PCP:  0.15;

COFFEYVILLE    LGT RAIN  38  38 100 CALM      30.17F FOG
6HR MIN TEMP:  35; 6HR MAX TEMP:  38; 6HR PCP:  0.23;

HUTCHINSON     CLOUDY    31  31 100 SE5       30.15S FOG
6HR MIN TEMP:  29; 6HR MAX TEMP:  31; 6HR PCP:  0.02;

MEDICINE LODGE   N/A     30  29  96 CALM      30.13F
NEWTON         MIX PCPN  31  29  92 S6        30.16S FOG
PARSONS        LGT RAIN  37  37 100 CALM      30.18F FOG
6HR MIN TEMP:  34; 6HR MAX TEMP:  37; 6HR PCP:  0.11;

WICHITA INTL   CLOUDY    32  32 100 CALM      30.15F
6HR MIN TEMP:  30; 6HR MAX TEMP:  32; 6HR PCP:  0.04;

WICHITA JABRA  CLOUDY    31  31 100 CALM      30.14F FOG
6HR MIN TEMP:  30; 6HR MAX TEMP:  32; 6HR PCP: TRACE;

WICHITA MCCONL CLOUDY    32  31  99 CALM      30.14  FOG
WINFIELD       CLOUDY    32  32 100 E5        30.16F FOG
6HR MIN TEMP:  31; 6HR MAX TEMP:  33; 6HR PCP:  0.09;

$$

KSZ007>012-019>026-033>040-048>060-102>105-230100-
NORTHEAST KANSAS

CITY           SKY/WX    TMP DP  RH WIND       PRES   REMARKS
CONCORDIA      FRZ RAIN  30  29  96 S6        30.17R FOG
6HR MIN TEMP:  26; 6HR MAX TEMP:  30; 6HR PCP:  0.04;

EMPORIA        CLOUDY    32  31  96 CALM      30.17S FOG
6HR MIN TEMP:  30; 6HR MAX TEMP:  32; 6HR PCP:  0.05;

LAWRENCE       CLOUDY    33  33 100 E5        30.17F FOG
6HR MIN TEMP:  31; 6HR MAX TEMP:  33; 6HR PCP:  0.02;

MANHATTAN      CLOUDY    32  31  96 CALM      30.19S FOG
6HR MIN TEMP:  30; 6HR MAX TEMP:  32; 6HR PCP: TRACE;

OLATHE IND     LGT RAIN  33  33 100 SE8       30.17F FOG
6HR MIN TEMP:  31; 6HR MAX TEMP:  33; 6HR PCP:  0.01;

OLATHE EXE     CLOUDY    32  32 100 SE10      30.16F FOG     WCI  24
6HR MIN TEMP:  29; 6HR MAX TEMP:  32; 6HR PCP:  0.01;

SALINA         CLOUDY    32  31  96 SE6       30.17F FOG
6HR MIN TEMP:  30; 6HR MAX TEMP:  32; 6HR PCP:  0.01;

TOPEKA BILLARD CLOUDY    33  33 100 CALM      30.18F FOG
6HR MIN TEMP:  31; 6HR MAX TEMP:  33; 6HR PCP: TRACE;

TOPEKA FORBES  CLOUDY    34  33  96 S3        30.18R FOG
6HR MIN TEMP:  31; 6HR MAX TEMP:  34; 6HR PCP: TRACE;

$$




USA.gov is the U.S. government's official web portal to all federal, state and local government web resources and services.